Weather History for Tyler, TX

Change the Weather History Date:

Thursday, November 11, 2010

  Actual Average Record
Temperature  
Mean Temperature 70 °F 57 °F  
Max Temperature 77 °F 67 °F 83 °F (1985)
Min Temperature 62 °F 48 °F 24 °F (1950)
Degree Days  
Heating Degree Days 0 8  
Month to date heating degree days 76 74  
Since 1 July heating degree days 115 151  
Cooling Degree Days 5 1  
Month to date cooling degree days 16 13  
Year to date cooling degree days 2993 2406  
Growing Degree Days 20 (Base 50)    
Moisture  
Dew Point 62 °F    
Average Humidity 77    
Maximum Humidity 93    
Minimum Humidity 60    
Precipitation  
Precipitation T in 0.14 in 3.18 in (2008)
Month to date precipitation 0.89 1.59  
Year to date precipitation 28.84 39.04  
Snow  
Snow 0.00 in - - ()
Month to date snowfall 0.0  
Since 1 July snowfall 0.0  
Since 1 September snowfall 0.0  
Snow Depth 0.00 in    
Sea Level Pressure  
Sea Level Pressure 30.16 in    
Wind  
Wind Speed 8 mph (SE)    
Max Wind Speed 16 mph    
Max Gust Speed 20 mph    
Visibility 10 miles    
Events Rain    
T = Trace of Precipitation, MM = Missing Value Source: NWS Daily Summary

Daily Weather History Graph

Daily Weather History Graph

Search for Another Location

Airport:

Trip Planner

Search our weather history database for the weather conditions in past years. The results will help you decide how hot, cold, wet, or windy it might be!

Date:

Astronomy

Nov. 11, 2010 Rise Set
Actual Time 6:47 AM CST 5:23 PM CST
Civil Twilight 6:21 AM CST 5:49 PM CST
Nautical Twilight 5:52 AM CST 6:18 PM CST
Astronomical Twilight 5:23 AM CST 6:47 PM CST
Moon 11:45 AM CST (11/11) 10:30 PM CST (11/11)
Length of Visible Light 11h 27m
Length of Day
10h 36m
Waxing Crescent, 32% of the Moon is Illuminated
Nov 11
Waxing Crescent
Nov 13
First Quarter
Nov 21
Full
Nov 28
Last Quarter
Dec 5
New

Hourly Weather History & Observations

Time (CST) Temp. Dew Point Humidity Pressure Visibility Wind Dir Wind Speed Gust Speed Precip Events Conditions
12:53 AM 63.0 °F 61.0 °F 93% 30.09 in 10.0 mi SSE 9.2 mph - N/A   Clear
1:53 AM 63.0 °F 61.0 °F 93% 30.10 in 10.0 mi SSE 9.2 mph - N/A   Clear
2:53 AM 62.1 °F 61.0 °F 96% 30.11 in 9.0 mi SE 8.1 mph - N/A   Clear
3:53 AM 64.0 °F 62.1 °F 93% 30.11 in 10.0 mi SSE 8.1 mph - N/A   Mostly Cloudy
4:53 AM 64.9 °F 63.0 °F 93% 30.12 in 10.0 mi SSE 6.9 mph - N/A   Mostly Cloudy
5:53 AM 66.0 °F 63.0 °F 90% 30.13 in 10.0 mi SSE 8.1 mph - N/A   Overcast
6:53 AM 66.0 °F 63.0 °F 90% 30.14 in 10.0 mi SSE 6.9 mph - N/A   Overcast
7:27 AM 66.2 °F 62.6 °F 88% 30.17 in 10.0 mi SSE 4.6 mph - N/A   Overcast
7:53 AM 66.0 °F 64.0 °F 93% 30.17 in 10.0 mi SSE 4.6 mph - N/A   Overcast
8:53 AM 68.0 °F 64.9 °F 90% 30.19 in 10.0 mi SE 6.9 mph - N/A   Overcast
9:00 AM 68.0 °F 64.4 °F 88% 30.20 in 10.0 mi SSE 5.8 mph - N/A   Overcast
9:40 AM 69.8 °F 64.4 °F 83% 30.22 in 10.0 mi SE 8.1 mph - N/A   Overcast
9:53 AM 69.1 °F 64.9 °F 87% 30.21 in 10.0 mi SE 8.1 mph - N/A   Overcast
10:33 AM 71.6 °F 64.4 °F 78% 30.22 in 10.0 mi SSE 10.4 mph 19.6 mph N/A   Mostly Cloudy
10:53 AM 72.0 °F 64.9 °F 78% 30.20 in 10.0 mi SE 10.4 mph - N/A   Overcast
11:53 AM 73.9 °F 64.9 °F 73% 30.19 in 10.0 mi SE 12.7 mph - N/A   Mostly Cloudy
12:27 PM 75.2 °F 64.4 °F 69% 30.19 in 10.0 mi ESE 10.4 mph - N/A   Overcast
12:45 PM 75.2 °F 62.6 °F 65% 30.18 in 10.0 mi ESE 10.4 mph - N/A   Overcast
12:53 PM 77.0 °F 62.1 °F 60% 30.16 in 10.0 mi ESE 10.4 mph - N/A   Mostly Cloudy
1:53 PM 77.0 °F 62.1 °F 60% 30.15 in 10.0 mi SE 12.7 mph - N/A   Mostly Cloudy
2:53 PM 75.0 °F 62.1 °F 64% 30.14 in 10.0 mi ESE 10.4 mph - N/A   Overcast
3:53 PM 75.0 °F 63.0 °F 66% 30.14 in 10.0 mi ESE 9.2 mph - 0.00 in   Mostly Cloudy
4:53 PM 73.0 °F 63.0 °F 71% 30.15 in 10.0 mi ESE 5.8 mph - 0.00 in Rain Light Rain
5:53 PM 73.0 °F 61.0 °F 66% 30.15 in 10.0 mi ESE 6.9 mph - 0.00 in   Overcast
6:53 PM 72.0 °F 59.0 °F 64% 30.17 in 10.0 mi ESE 9.2 mph - N/A   Overcast
7:53 PM 71.1 °F 59.0 °F 66% 30.18 in 10.0 mi SE 8.1 mph - N/A   Overcast
8:53 PM 70.0 °F 59.0 °F 68% 30.18 in 10.0 mi SE 6.9 mph - N/A   Overcast
9:53 PM 69.1 °F 59.0 °F 70% 30.19 in 10.0 mi SSE 5.8 mph - N/A   Overcast
10:53 PM 69.1 °F 59.0 °F 70% 30.18 in 10.0 mi SSE 8.1 mph - N/A   Overcast
11:53 PM 68.0 °F 60.1 °F 76% 30.18 in 10.0 mi SSE 6.9 mph - N/A   Overcast